This demonstration page uses our WeatherBlox Daily Observations layout. Learn more.

Left ArrowRight Arrow

Hourly Observations for September 28, 2019

Temp ( °F °C ) Dew Point ( °F °C ) Humidity (%) Winds ( mph kmh ) Pressure ( in mb ) Visibility ( mi km ) Precip ( " mm )
12:54 am 00:54 Cloudy 60 15.6 49 9.4 67 67 NNE 18 30 29.95 1014 10 16 0.00 0.00
1:54 am 01:54 Cloudy 59 15 49 9.4 69 69 NNE 18 30 29.96 1015 10 16 0.00 0.00
2:54 am 02:54 Mostly Clear 57 13.9 49 9.4 74 74 NE 12 19 29.98 1015 10 16 0.00 0.00
3:54 am 03:54 Clear 54 12.2 49 9.4 83 83 NNE 12 19 29.98 1015 10 16 0.00 0.00
4:54 am 04:54 Clear 52 11.1 48 8.9 86 86 NNE 8 13 30.00 1016 10 16 0.00 0.00
5:54 am 05:54 Clear 50 10 47 8.3 89 89 N 8 13 30.01 1016 10 16 0.00 0.00
6:54 am 06:54 Clear 49 9.4 46 7.8 90 90 NNE 9 15 30.02 1017 10 16 0.00 0.00
7:54 am 07:54 Sunny 50 10 46 7.8 86 86 NNE 10 17 30.05 1018 10 16 0.00 0.00
8:54 am 08:54 Sunny 53 11.7 46 7.8 77 77 NE 15 24 30.06 1018 10 16 0.00 0.00
9:54 am 09:54 Sunny 57 13.9 48 8.9 72 72 NE 13 20 30.07 1018 10 16 0.00 0.00
10:54 am 10:54 Sunny 61 16.1 49 9.4 65 65 NE 14 22 30.05 1018 10 16 0.00 0.00
11:32 am 11:32 Mostly Cloudy 61 16.1 49 9.4 65 65 NE 10 17 30.06 1018 10 16 0.00 0.00
11:54 am 11:54 Mostly Cloudy 63 17.2 50 10 63 63 NNE 8 13 30.06 1018 10 16 0.00 0.00
12:41 pm 12:41 Partly Cloudy 65 18.3 52 11.1 63 63 NE 10 17 30.02 1017 10 16 0.00 0.00
12:54 pm 12:54 Sunny 65 18.3 52 11.1 63 63 NE 14 22 30.03 1017 10 16 0.00 0.00
1:54 pm 13:54 Cloudy 66 18.9 53 11.7 63 63 NE 12 19 30.03 1017 10 16 0.00 0.00
2:54 pm 14:54 Cloudy 66 18.9 53 11.7 63 63 NE 12 19 30.00 1016 10 16 0.00 0.00
3:54 pm 15:54 Cloudy with Light Rain 65 18.3 54 12.2 68 68 ENE 12 19 30.00 1016 8 13 0.00 0.00
4:54 pm 16:54 Cloudy 65 18.3 57 13.9 76 76 ENE 10 17 29.95 1014 10 16 0.00 0.00
5:54 pm 17:54 Cloudy with Light Rain 63 17.2 59 15 87 87 E 15 24 29.93 1014 8 13 0.01 0.25
6:33 pm 18:33 Cloudy 63 17.2 59 15 87 87 E 10 17 29.94 1014 10 16 0.00 0.00
6:54 pm 18:54 Cloudy 63 17.2 59 15 87 87 E 8 13 29.96 1015 10 16 0.00 0.00
7:54 pm 19:54 Cloudy 63 17.2 59 15 87 87 E 7 11 29.97 1015 10 16 0.00 0.00
8:25 pm 20:25 Cloudy 63 17.2 59 15 87 87 ESE 7 11 29.96 1015 10 16 0.00 0.00
8:54 pm 20:54 Cloudy 63 17.2 60 15.6 90 90 ESE 8 13 29.98 1015 10 16 0.00 0.00
9:54 pm 21:54 Cloudy 64 17.8 60 15.6 87 87 ESE 10 17 29.98 1015 8 13 0.00 0.00
10:54 pm 22:54 Cloudy with Mist and Fog 63 17.2 61 16.1 93 93 ESE 7 11 29.98 1015 3 5 0.00 0.00
11:23 pm 23:23 Cloudy with Mist and Fog 63 17.2 61 16.1 93 93 SE 8 13 29.98 1015 3 4 0.00 0.00
11:54 pm 23:54 Cloudy with Mist and Fog 63 17.2 61 16.1 93 93 ESE 8 13 29.98 1015 2 3 0.00 0.00

Powered by AerisWeather